Weather History for Rome, OR

Change the Weather History Date:

Wednesday, May 22, 2013

  Actual Average Record
Temperature  
Mean Temperature 46 °F 55 °F  
Max Temperature 57 °F 71 °F 93 °F (1988)
Min Temperature 34 °F 39 °F 28 °F (2007)
Degree Days  
Heating Degree Days 19 10  
Month to date heating degree days 180 280  
Since 1 July heating degree days 6115 6374  
Cooling Degree Days 0 0  
Month to date cooling degree days 22 0  
Year to date cooling degree days 22 0  
Moisture  
Dew Point 11 °F    
Average Humidity 32    
Maximum Humidity 52    
Minimum Humidity 12    
Precipitation  
Precipitation 0.00 in 0.05 in 0.57 in (1965)
Month to date precipitation 0.31 1.00  
Year to date precipitation 1.91 4.37  
Sea Level Pressure  
Sea Level Pressure 29.88 in    
Wind  
Wind Speed 9 mph (WNW)    
Max Wind Speed 18 mph    
Max Gust Speed 31 mph    
T = Trace of Precipitation, MM = Missing Value Source: NWS Daily Summary

Daily Weather History Graph

Daily Weather History Graph

Search for Another Location

Airport:

Trip Planner

Search our weather history database for the weather conditions in past years. The results will help you decide how hot, cold, wet, or windy it might be!

Date:

Astronomy

May. 22, 2013 Rise Set
Actual Time 5:22 AM PDT 8:14 PM PDT
Civil Twilight 4:49 AM PDT 8:47 PM PDT
Nautical Twilight 4:07 AM PDT 9:29 PM PDT
Astronomical Twilight 3:19 AM PDT 10:18 PM PDT
Moon 5:39 PM PDT (5/22) 3:33 AM PDT (5/22)
Length of Visible Light 15h 57m
Length of Day
14h 51m
Waxing Gibbous, 92% of the Moon is Illuminated
May 22
Waxing Gibbous
May 24
Full
May 31
Last Quarter
Jun 8
New
Jun 16
First Quarter

Hourly Weather History & Observations

Time (PDT) Temp. Windchill Dew Point Humidity Pressure Visibility Wind Dir Wind Speed Gust Speed Precip Events Conditions
12:52 AM 42.1 °F 36.1 °F - N/A% 29.75 in - NE 10.4 mph - N/A   Unknown
1:52 AM 42.1 °F - - N/A% 29.77 in - Calm Calm - N/A   Unknown
2:52 AM 39.9 °F 35.1 °F - N/A% 29.78 in - NNE 6.9 mph - N/A   Unknown
3:52 AM 39.0 °F 33.4 °F - N/A% 29.81 in - West 8.1 mph - N/A   Unknown
4:52 AM 37.0 °F 31.0 °F - N/A% 29.82 in - West 8.1 mph - N/A   Unknown
5:52 AM 36.0 °F 28.0 °F 19.9 °F 52% 29.85 in - WNW 11.5 mph - N/A   Unknown
6:52 AM 35.1 °F 30.1 °F 18.0 °F 50% 29.88 in - SSW 5.8 mph - N/A   Unknown
7:52 AM 37.9 °F 32.7 °F 16.0 °F 41% 29.89 in - North 6.9 mph - N/A   Unknown
8:52 AM 42.1 °F 35.7 °F 12.0 °F 29% 29.92 in - SW 11.5 mph 16.1 mph N/A   Unknown
9:52 AM 44.1 °F 38.1 °F 10.9 °F 26% 29.93 in - WSW 11.5 mph 21.9 mph N/A   Unknown
10:52 AM 46.0 °F 41.0 °F 10.9 °F 24% 29.94 in - WSW 10.4 mph 19.6 mph N/A   Unknown
11:52 AM 46.9 °F - 10.9 °F 23% 29.94 in - SW 17.3 mph 23.0 mph N/A   Unknown
12:52 PM 51.1 °F - 10.9 °F 20% 29.92 in - WSW 12.7 mph 21.9 mph N/A   Unknown
1:52 PM 48.9 °F - 10.0 °F 21% 29.91 in - ENE 3.5 mph - N/A   Unknown
2:52 PM 55.0 °F - 9.0 °F 16% 29.89 in - SSW 12.7 mph 20.7 mph N/A   Unknown
3:52 PM 55.9 °F - 5.0 °F 13% 29.88 in - West 18.4 mph 23.0 mph N/A   Unknown
4:52 PM 55.9 °F - 7.0 °F 14% 29.87 in - West 13.8 mph 31.1 mph N/A   Unknown
5:52 PM 55.0 °F - 7.0 °F 15% 29.87 in - Variable 3.5 mph 18.4 mph N/A   Unknown
6:52 PM 52.0 °F - 7.0 °F 16% 29.88 in - NW 8.1 mph - N/A   Unknown
7:52 PM 53.1 °F - 7.0 °F 16% 29.88 in - Calm Calm - N/A   Unknown
8:52 PM 45.0 °F 41.2 °F 7.0 °F 21% 29.90 in - NNE 6.9 mph - N/A   Unknown
9:52 PM 44.1 °F 40.1 °F 15.1 °F 31% 29.91 in - North 6.9 mph - N/A   Unknown
10:52 PM 39.9 °F 35.8 °F 15.1 °F 36% 29.91 in - NNE 5.8 mph - N/A   Unknown
11:52 PM 37.9 °F 32.7 °F 16.0 °F 41% 29.92 in - NE 6.9 mph - N/A   Unknown